User: anonymous   Login
Location: Utrecht
(52.0830°N, 5.1330°E)
Time: 04:41:29
(UTC+01:00)
Language:

Cosmos 1092 Rocket - Orbit

View from above orbital plane
View from above orbital plane
View from above satellite
View from above satellite

Ground track
Ground track

The orbit data is extracted from the following two-line orbital elements,

1 11327U 79030B   14298.07135075  .00000070  00000-0  54978-4 0  8684
2 11327 082.9473 293.1986 0027504 007.3942 051.8528 13.76945835786180
Epoch (UTC): 25 October 2014 01:42:44
Eccentricity: 0.0027504
inclination: 82.9473°
perigee height: 954 km
apogee height: 995 km
right ascension of ascending node: 293.1986°
argument of perigee: 7.3942°
revolutions per day: 13.76945835
mean anomaly at epoch: 51.8528°
orbit number at epoch: 78618

The dashed part of the orbit path shows where the satellite is in the earth's shadow,  

DLR